STARLINK-31840, 60127

Orbit data source: Space-Track

STARLINK-31840, 60127 is a payload satellite owned by SpaceX/Seattle (US) in LEO that was launched on Mon, 24 Jun 2024 UTC via an FALCON 9 launch vehicle from the Air Force Western Test Range (AFWTR). Payload-class satellites include a variety of spacecraft equipped with specific instruments for various scientific and technological missions. These include communications satellites like Starlink; space stations such as the ISS; scientific satellites like the Hubble; Earth observation satellites from companies like Planet Labs, Umbra, and HawkEye 360; GPS; miniature CubeSats for education and research; and military/defense satellites.

Loading next visibility...
Identifier
60127, 2024-118Q
Orbit
LEO
Country
Flag of USUS
Related business
Manufacturer
SpaceX/Seattle
Mission
Operational Commercial Communications
Bus & Motor
STARLINK V2M, Unknown motor
Mass
730 kg wet, ~700 kg dry
Launch date (UTC)
2024-06-24 (1 year ago)
Launch vehicle
FALCON 9
Launch site
Air Force Western Test Range (AFWTR)
Object type
Payload
Rocket body
Debris
Shape & HBR
Box + 2 Pan, 17.7 m
Radar Cross Section
33.884 m², Large (>1 m²)

Expand to show TLE details & history
Last TLE update: 13 hours ago

TLE from 13 hours ago
0 STARLINK-31840
1 60127U 24118Q   25295.07740532  .00001100  00000-0  49254-4 0  9993
2 60127  53.1604 310.6025 0001222  95.4270 264.6870 15.30192066 74476
Epoch: 2025-10-22T01:51Z
TLE epoch observation values (Epoch: 2025-10-22T01:51:27.819Z)
Latitude
-0.00004°
Longitude
-108.01964°
Altitude
476.216 km
Speed
7.629 km/s
True Right ascension
20h 42m 24s
True Declination
0° 00' 00"
Sunlit
Object was in daylight at epoch
Visualization orbit readout
Latitude
Unknown
Longitude
Unknown
Altitude
Unknown
Speed
Unknown
Apparent Right ascension
Unknown
Apparent Declination
Unknown
Sunlit
N/A
Visualization observer readout
Local Sidereal Time
09:52:28
Azimuth
Unknown
Elevation
Unknown
Doppler factor
Unknown
Orbital elements
Apogee altitude
476.333 km
Perigee altitude
474.658 km
Semi-major axis
6,853.632 km
Eccentricity
0.00012
Inclination
53.1604°
RAAN
310.6025°
Arg. of periapsis
95.427°
True anomaly
264.67306°
Mean anomaly
264.687°
Eccentric anomaly
264.68003°
Mean motion
3.82527 °/min
Orbital period
94.11 mins
BSTAR
0.000049254
Loading maneuver chart data...
Computing Atmospheric mass density...
Loading historical data...
Loading historical data...
Loading historical data...
Loading historical data...
Loading historical data...
Loading historical data...
Loading historical data...

Documentation

Showing up to 5 results
|